星链-31642 (STARLINK-31642 )

导读

STARLINK-31642是美国太空探索技术公司(SpaceX)星链星座的一员,于2024年5月10日发射入轨,属于Starlink Group组网批次卫星。星链星座旨在构建全球卫星互联网,为地面偏远地区提供高速宽带服务。该卫星承担低轨通信任务,是星链大规模扩展全球覆盖能力的组成部分,服务全球互联网接入需求。

基本信息
目录编号:
59726
目录名称:
STARLINK-31642
国际标识:
2024-088U
轨道中心:
EARTH
卫星名称:
星链-31642
卫星全名:
星链-31642 (STARLINK-31642 )
卫星状态:
在轨 (已飞行769 天)
发射日期:
2024-05-10 UTC
国别 :
美国 (US)
星等 :
--
轨道信息
数据来源 国际轨道数据 AOE轨道数据
星历时间 2026-06-18T03:10:42+0800
8小时前
查看轨道信息
2026-06-16T22:00:00+0800
1天前
查看轨道信息
半长轴 6848.972km 6848.849km
偏心率 0.0001064 0.0001053
轨道倾角 53.159° 53.158°
近地点辐角 107.573° 88.712°
升交点赤经 34.610° 40.272°
平近点角 252.539° 43.855°
近地点 470.106km 469.99km
远地点 471.564km 471.434km
周期 94.015分钟 94.013分钟
每日圈数 15.316684 15.317095
详细信息
固有亮度:
5
最大亮度:
1.5
卫星平台:
Starlink v2.0 mini
覆盖范围:
全球
运营商:
太空探索技术公司
运营商所在国:
美国
制造商(研发单位):
太空探索技术公司
制造商所在国:
美国
使用方式:
暂无
卫星简介
星链(Starlink)计划是由太空探索技术公司(SpaceX)提出的一个巨型低轨卫星互联网星座项目,计划在2019年至2024年间在太空搭建由约1.2万颗卫星组成的“星链”网络,其中1584颗将部署在地球上空550千米处的近地轨道,并从2020年开始工作。该卫星仍在工作。
2D轨道图
3D轨道图
轨道高度分析图
轨道倾角分析图
轨道综合分析图
查看轨道综合分析图